Terminal Aerodrome Forecast
Issued by NWS North Platte, NE

Home | Current Version | Previous Version | Text Only | Print | Product List | Glossary On
Versions: 1 2 3 4 5 6 7 8 9 10 11 12 13
000
FTUS43 KLBF 020520
TAFLBF
TAF
KLBF 020520Z 0206/0306 VRB06KT P6SM SCT100 BKN250
     FM021800 21006KT P6SM SKC=

USA.gov is the U.S. government's official web portal to all federal, state and local government web resources and services.